User: anonymous
Location: Mason Neck State Park
(38.6428°N, 77.1981°W)
Time: 09:52:51
(UTC-04:00)
Language:

Cosmos 1400 Rocket - Orbit

View from above orbital plane
View from above orbital plane
View from above satellite
View from above satellite

Ground track
Ground track

The orbit data is extracted from the following two-line orbital elements,

1 13403U 82079B   14212.75662931  .00002214  00000-0  15793-3 0  6248
2 13403 081.1700 031.7766 0037077 136.9315 223.4820 15.03598653738512
Epoch (UTC): 31 July 2014 18:09:32
Eccentricity: 0.0037077
inclination: 81.1700°
perigee height: 530 km
apogee height: 581 km
right ascension of ascending node: 31.7766°
argument of perigee: 136.9315°
revolutions per day: 15.03598653
mean anomaly at epoch: 223.4820°
orbit number at epoch: 73851

The dashed part of the orbit path shows where the satellite is in the earth's shadow,  

DLR